1515081600.76,29466,7.75,71972.8,-12.05,-40.53,-40.53,0,*69
1515081602.03,29467,7.75,71972.8,-12.07,-40.59,-40.53,0,*60
1515081603.29,29468,7.75,71974.5,-12.07,-40.59,-40.73,0,*6D
1515081604.53,29469,7.75,71974.5,-12.05,-40.53,-40.59,0,*6C
1515081605.74,29470,7.75,71976.8,-12.05,-40.73,-40.73,0,*6E
1515081607.0,29471,7.75,71972.5,-12.07,-40.79,-40.73,0,*67
1515081608.24,29472,7.75,71972.8,-12.05,-40.73,-40.59,0,*64
1515081609.5,29473,7.75,71978.3,-12.07,-40.59,-40.73,0,*67
1515081610.76,29474,7.75,71972.8,-12.07,-40.73,-40.59,0,*60
1515081612.0,29475,7.75,71974.5,-12.07,-40.73,-40.73,0,*69
1515081613.26,29476,7.75,71976.8,-12.09,-40.79,-40.85,0,*67
1515081614.52,29477,7.75,71976.0,-12.11,-40.79,-40.65,0,*61
1515081615.77,29478,7.75,71976.5,-12.09,-40.85,-40.79,0,*69
1515081617.03,29479,7.75,71974.3,-12.11,-40.65,-40.59,0,*6D
1515081618.23,29480,7.75,71972.3,-12.09,-40.65,-40.65,0,*6D
1515081619.5,29481,7.75,71974.8,-12.11,-40.59,-40.65,0,*6A
1515081620.75,29482,7.75,71970.8,-12.11,-40.65,-40.59,0,*69
1515081621.96,29483,7.75,71974.3,-12.09,-40.65,-40.65,0,*6E
1515081623.19,29484,7.75,71972.0,-12.11,-40.65,-40.47,0,*60
1515081624.42,29485,7.75,71974.0,-12.09,-40.41,-40.47,0,*6E
1515081625.68,29486,7.75,71972.3,-12.09,-40.59,-40.59,0,*6B
1515081626.92,29487,7.75,71968.3,-12.09,-40.41,-40.47,0,*6C
1515081628.21,29488,7.75,71970.3,-12.11,-40.29,-40.41,0,*62
1515081629.5,29489,7.75,71970.5,-12.11,-40.59,-40.59,0,*6D
1515081630.79,29490,7.75,71968.8,-12.11,-40.29,-40.41,0,*6B
1515081632.05,29491,7.75,71970.8,-12.09,-40.41,-40.41,0,*6D
1515081633.34,29492,7.75,71970.0,-12.11,-40.21,-40.41,0,*61
1515081634.57,29493,7.75,71968.0,-12.11,-40.47,-40.47,0,*66
1515081635.83,29494,7.75,71972.3,-12.09,-40.29,-40.29,0,*68
1515081637.12,29495,7.75,71970.3,-12.11,-40.41,-40.29,0,*6E
1515081638.39,29496,7.75,71966.0,-12.09,-40.41,-40.41,0,*6A
1515081639.65,29497,7.75,71970.8,-12.11,-40.41,-40.47,0,*64
1515081640.9,29498,7.75,71970.8,-12.11,-40.65,-40.79,0,*60
1515081642.18,29499,7.75,71964.5,-12.11,-40.79,-40.79,0,*6C
1515081643.44,29500,7.75,71970.5,-12.11,-40.65,-40.59,0,*62
1515081644.72,29501,7.75,71962.8,-12.11,-40.79,-40.79,0,*6C
1515081645.99,29502,7.75,71966.8,-12.11,-40.59,-40.65,0,*60
1515081647.22,29503,7.75,71970.3,-12.11,-40.65,-40.65,0,*6E
1515081648.5,29504,7.75,71966.0,-12.11,-40.79,-40.79,0,*69
1515081649.78,29505,7.75,71968.3,-12.11,-40.85,-40.79,0,*6B
1515081651.04,29506,7.75,71966.8,-12.11,-40.65,-40.85,0,*65
1515081652.3,29507,7.75,71964.3,-12.11,-40.65,-40.59,0,*65
1515081653.54,29508,7.75,71970.8,-12.13,-40.59,-40.47,0,*68
1515081654.78,29509,7.75,71968.0,-12.13,-40.41,-40.47,0,*60
1515081656.05,29510,7.75,71970.5,-12.13,-40.41,-40.41,0,*6E
1515081657.32,29511,7.75,71972.0,-12.13,-40.41,-40.41,0,*6F
1515081658.53,29512,7.75,71972.3,-12.13,-40.47,-40.47,0,*6C
1515081659.77,29513,7.75,71972.5,-12.13,-40.47,-40.41,0,*6B
1515081661.0,29514,7.75,71976.3,-12.13,-40.65,-40.59,0,*65
1515081662.21,29515,7.75,71974.3,-12.13,-40.47,-40.47,0,*6B
1515081663.41,29516,7.75,71972.8,-12.13,-40.65,-40.65,0,*68
1515081664.68,29517,7.75,71972.3,-12.13,-40.41,-40.41,0,*69
1515081665.92,29518,7.75,71974.5,-12.17,-40.73,-40.85,0,*6B
1515081667.13,29519,7.75,71970.5,-12.17,-40.65,-40.65,0,*63
1515081668.33,29520,7.75,71972.8,-12.17,-40.65,-40.65,0,*69
1515081669.54,29521,7.75,71972.8,-12.17,-40.47,-40.47,0,*68
1515081670.81,29522,7.75,71972.8,-12.13,-40.09,-40.09,0,*6F
1515081672.07,29523,7.75,71968.0,-12.13,-40.29,-40.29,0,*6E
1515081673.3,29524,7.75,71970.0,-12.17,-40.29,-40.35,0,*60
1515081674.57,29525,7.75,71972.8,-12.13,-40.09,-40.21,0,*62
1515081675.81,29526,7.75,71970.0,-12.17,-40.15,-40.29,0,*60
1515081677.07,29527,7.75,71972.8,-12.13,-40.21,-40.29,0,*62
1515081678.31,29528,7.75,71976.5,-12.13,-40.15,-40.29,0,*6A
1515081679.54,29529,7.75,71968.8,-12.17,-40.29,-40.35,0,*6D
1515081680.81,29530,7.75,71966.8,-12.13,-40.09,-40.21,0,*66
1515081682.08,29531,7.75,71970.3,-12.13,-40.09,-40.21,0,*67
1515081683.35,29532,7.75,71966.8,-12.13,-40.09,-40.09,0,*6E
1515081684.59,29533,7.75,71966.5,-12.13,-39.91,-40.09,0,*60
1515081685.84,29534,7.75,71970.8,-12.13,-39.91,-40.09,0,*67
1515081687.06,29535,7.75,71968.3,-12.13,-39.85,-39.91,0,*6C
1515081688.3,29536,7.75,71962.0,-12.13,-39.91,-40.09,0,*65
1515081689.58,29537,7.75,71956.5,-12.11,-39.91,-40.09,0,*66
1515081690.82,29538,7.75,71962.5,-12.11,-39.91,-40.03,0,*63
1515081692.06,29539,7.75,71974.0,-12.11,-39.91,-40.03,0,*62
1515081693.33,29540,7.75,71972.0,-12.11,-39.91,-40.09,0,*66
1515081694.56,29541,7.75,71968.3,-12.11,-40.03,-40.03,0,*68
1515081695.81,29542,7.75,71970.5,-12.11,-39.85,-39.91,0,*6E
1515081697.07,29543,7.75,71970.0,-12.11,-40.03,-40.09,0,*60
1515081698.31,29544,7.75,71974.5,-12.11,-40.03,-40.03,0,*6D
1515081699.54,29545,7.75,71974.0,-12.09,-40.03,-40.21,0,*65
1515081700.81,29546,7.75,71978.0,-12.09,-40.09,-40.41,0,*6A
1515081702.1,29547,7.75,71968.5,-12.11,-40.29,-40.41,0,*60
1515081703.35,29548,7.75,71974.3,-12.09,-40.21,-40.21,0,*68
1515081704.62,29549,7.75,71968.8,-12.11,-40.03,-40.09,0,*6A
1515081705.88,29550,7.75,71970.8,-12.09,-40.09,-40.29,0,*63
1515081707.14,29551,7.75,71970.3,-12.09,-40.09,-40.29,0,*62
1515081708.38,29552,7.75,71968.3,-12.09,-39.91,-40.21,0,*66
1515081709.62,29553,7.75,71966.3,-12.09,-40.03,-40.09,0,*68
1515081710.87,29554,7.75,71966.5,-12.09,-40.21,-40.41,0,*63
1515081712.11,29555,7.75,71960.8,-12.09,-40.03,-40.21,0,*64
1515081713.35,29556,7.75,71966.5,-12.09,-39.91,-40.21,0,*62
1515081714.58,29557,7.75,71966.5,-12.09,-40.03,-40.09,0,*6C
1515081715.79,29558,7.75,71968.8,-12.09,-39.91,-40.03,0,*6C
1515081717.04,29559,7.69,71962.5,-12.09,-39.91,-40.09,0,*67
1515081718.29,29560,7.75,71966.3,-12.09,-40.21,-40.29,0,*6A
1515081719.57,29561,7.75,71970.0,-12.07,-40.21,-40.21,0,*6D
1515081720.81,29562,7.75,71970.0,-12.07,-40.35,-40.53,0,*6E
1515081722.05,29563,7.75,71976.0,-12.07,-40.35,-40.35,0,*6F
1515081723.29,29564,7.75,71972.5,-12.07,-40.15,-40.35,0,*6A
1515081724.56,29565,7.75,71976.0,-12.07,-40.03,-40.21,0,*69
1515081725.82,29566,7.75,71968.3,-12.07,-39.85,-39.97,0,*69
1515081727.11,29567,7.69,71962.0,-12.07,-40.21,-40.21,0,*6B
1515081728.37,29568,7.75,71962.5,-12.07,-40.03,-40.21,0,*64
1515081729.63,29569,7.75,71970.8,-12.07,-40.03,-40.21,0,*65
1515081730.88,29570,7.75,71970.8,-12.07,-40.15,-40.15,0,*6D
1515081732.13,29571,7.75,71964.0,-12.07,-40.15,-40.35,0,*6E
1515081733.38,29572,7.75,71966.3,-12.07,-40.21,-40.35,0,*6A
1515081734.64,29573,7.75,71970.8,-12.07,-40.21,-40.35,0,*6B
1515081735.88,29574,7.75,71968.0,-12.07,-40.03,-40.15,0,*6E
1515081737.12,29575,7.75,71974.0,-12.05,-39.97,-40.15,0,*6E
1515081738.39,29576,7.75,71970.3,-12.07,-40.15,-40.21,0,*6C
1515081739.65,29577,7.75,71972.3,-12.05,-40.21,-40.21,0,*68
1515081740.91,29578,7.75,71972.0,-12.07,-40.35,-40.21,0,*60
1515081742.15,29579,7.75,71974.0,-12.07,-40.35,-40.35,0,*64
1515081743.41,29580,7.75,71972.0,-12.05,-40.21,-40.41,0,*66
1515081744.66,29581,7.75,71968.3,-12.07,-40.21,-40.35,0,*66
1515081745.91,29582,7.75,71970.3,-12.07,-40.15,-40.15,0,*60
1515081747.18,29583,7.75,71970.5,-12.07,-40.03,-40.21,0,*61
1515081748.46,29584,7.75,71972.0,-12.07,-40.21,-40.21,0,*66
1515081749.73,29585,7.75,71970.3,-12.07,-40.41,-40.35,0,*64
1515081751.02,29586,7.75,71972.0,-12.07,-40.41,-40.41,0,*64
1515081752.29,29587,7.75,71972.3,-12.07,-40.41,-40.35,0,*66
1515081753.56,29588,7.75,71972.3,-12.05,-40.41,-40.41,0,*68
1515081754.81,29589,7.75,71972.0,-12.07,-40.15,-40.15,0,*6B
1515081756.07,29590,7.75,71970.5,-12.07,-40.35,-40.41,0,*60
1515081757.37,29591,7.75,71974.0,-12.07,-40.41,-40.41,0,*62
1515081758.61,29592,7.75,71970.3,-12.05,-40.53,-40.41,0,*60
1515081759.87,29593,7.75,71968.0,-12.07,-40.41,-40.35,0,*63
1515081761.15,29594,7.75,71972.3,-12.07,-40.21,-40.21,0,*67
1515081762.4,29595,7.75,71970.5,-12.07,-40.15,-40.15,0,*66
1515081763.67,29596,7.75,71970.5,-12.09,-40.41,-40.29,0,*65
1515081764.91,29597,7.75,71972.5,-12.07,-40.15,-40.15,0,*64
1515081766.16,29598,7.75,71968.8,-12.07,-40.15,-40.15,0,*6B
1515081767.45,29599,7.75,71972.8,-12.07,-39.97,-40.21,0,*69
1515081768.74,29600,7.75,71964.8,-12.07,-39.97,-39.97,0,*69
1515081770.0,29601,7.75,71966.3,-12.07,-39.97,-40.03,0,*6B
1515081771.24,29602,7.75,71966.8,-12.05,-40.15,-40.21,0,*6E
1515081772.46,29603,7.75,71968.8,-12.05,-40.03,-40.03,0,*68
1515081773.68,29604,7.75,71968.3,-12.05,-40.15,-40.15,0,*6F
1515081774.91,29605,7.75,71972.5,-12.05,-40.21,-40.35,0,*6B
1515081776.18,29606,7.75,71970.5,-12.07,-40.41,-40.35,0,*6C
1515081777.45,29607,7.75,71974.5,-12.05,-40.41,-40.41,0,*6C
1515081778.69,29608,7.75,71974.5,-12.05,-40.53,-40.41,0,*60
1515081779.93,29609,7.75,71974.3,-12.07,-40.15,-40.35,0,*62
1515081781.23,29610,7.75,71968.3,-12.07,-40.41,-40.59,0,*61
1515081782.49,29611,7.75,71970.3,-12.07,-40.59,-40.53,0,*63
1515081783.78,29612,7.75,71970.3,-12.07,-40.59,-40.59,0,*6A
1515081785.05,29613,7.75,71968.3,-12.07,-40.59,-40.73,0,*63
1515081786.31,29614,7.75,71968.3,-12.07,-40.59,-40.53,0,*66
1515081787.57,29615,7.75,71970.5,-12.07,-40.79,-40.73,0,*67
1515081788.8,29616,7.75,71970.3,-12.09,-40.59,-40.47,0,*6F
1515081790.0,29617,7.75,71972.8,-12.09,-40.65,-40.47,0,*61
1515081791.23,29618,7.75,71972.8,-12.09,-40.79,-40.65,0,*63
1515081792.48,29619,7.75,71972.5,-12.09,-40.79,-40.79,0,*6F
1515081793.74,29620,7.75,71972.5,-12.09,-40.59,-40.59,0,*65
1515081794.98,29621,7.69,71968.0,-12.11,-40.47,-40.47,0,*6D
1515081796.21,29622,7.75,71968.8,-12.09,-40.41,-40.47,0,*61
1515081797.48,29623,7.75,71974.0,-12.09,-40.41,-40.41,0,*66
1515081798.73,29624,7.75,71968.5,-12.09,-40.21,-40.41,0,*67
1515081799.94,29625,7.69,71964.3,-12.09,-40.47,-40.47,0,*60
1515081801.2,29626,7.75,71968.8,-12.09,-40.29,-40.41,0,*6D
1515081802.49,29627,7.75,71972.5,-12.11,-40.59,-40.59,0,*6B
1515081803.74,29628,7.75,71968.0,-12.09,-40.21,-40.21,0,*6D
1515081805.04,29629,7.75,71968.8,-12.11,-40.09,-40.09,0,*65
1515081806.29,29630,7.75,71974.3,-12.09,-40.29,-40.29,0,*64
1515081807.55,29631,7.75,71970.8,-12.09,-40.29,-40.41,0,*6B
1515081808.82,29632,7.75,71972.0,-12.09,-40.41,-40.41,0,*66
1515081810.05,29633,7.69,71970.8,-12.09,-40.47,-40.41,0,*61
1515081811.29,29634,7.75,71970.5,-12.09,-40.47,-40.59,0,*6F
1515081812.55,29635,7.75,71972.8,-12.09,-40.29,-40.41,0,*6F
1515081813.78,29636,7.75,71970.0,-12.09,-40.41,-40.47,0,*64
1515081815.04,29637,7.75,71970.5,-12.09,-40.21,-40.21,0,*63
1515081816.29,29638,7.75,71974.5,-12.09,-40.29,-40.29,0,*6C
1515081817.53,29639,7.75,71974.0,-12.09,-40.41,-40.47,0,*6B
1515081818.78,29640,7.69,71964.0,-12.09,-40.21,-40.21,0,*63
1515081820.05,29641,7.75,71968.8,-12.09,-40.09,-40.09,0,*62
1515081821.28,29642,7.75,71970.5,-12.09,-40.03,-40.09,0,*6B
1515081822.49,29643,7.75,71970.8,-12.09,-40.03,-40.03,0,*60
1515081823.74,29644,7.75,71974.3,-12.09,-40.21,-40.21,0,*67
1515081824.95,29645,7.69,71968.3,-12.09,-39.91,-40.03,0,*63
1515081826.19,29646,7.75,71974.3,-12.09,-39.91,-40.09,0,*6A
1515081827.41,29647,7.75,71974.5,-12.05,-40.03,-40.15,0,*6F
1515081828.64,29648,7.75,71974.0,-12.09,-40.09,-40.03,0,*61
1515081829.91,29649,7.75,71974.3,-12.11,-40.03,-40.09,0,*69
1515081831.17,29650,7.75,71970.5,-12.07,-39.97,-40.03,0,*6F
1515081832.43,29651,7.75,71968.5,-12.07,-39.85,-39.97,0,*6E
1515081833.69,29652,7.75,71972.5,-12.05,-39.97,-39.97,0,*6C
1515081834.93,29653,7.75,71974.3,-12.07,-39.85,-39.85,0,*6F
1515081836.19,29654,7.75,71978.3,-12.07,-39.97,-40.03,0,*6B
1515081837.46,29655,7.75,71974.8,-12.07,-39.79,-39.85,0,*6A
1515081838.73,29656,7.75,71974.5,-12.05,-39.97,-39.97,0,*68
1515081839.97,29657,7.75,71976.0,-12.07,-40.03,-40.15,0,*6C
1515081841.2,29658,7.69,71968.8,-12.07,-40.03,-40.15,0,*63
1515081842.44,29659,7.75,71972.5,-12.07,-40.03,-40.15,0,*62
1515081843.65,29660,7.75,71972.0,-12.05,-40.03,-40.03,0,*6D
1515081844.89,29661,7.75,71976.8,-12.05,-39.97,-40.15,0,*68
1515081846.14,29662,7.75,71974.8,-12.05,-40.15,-40.21,0,*68
1515081847.4,29663,7.75,71970.8,-12.07,-39.97,-40.03,0,*6F
1515081848.61,29664,7.69,71970.5,-12.05,-40.03,-40.03,0,*69
1515081849.83,29665,7.75,71972.8,-12.05,-40.03,-40.15,0,*6F
1515081851.06,29666,7.75,71974.3,-12.07,-40.03,-40.03,0,*69
1515081852.33,29667,7.75,71976.3,-12.07,-40.15,-40.21,0,*6F
1515081853.56,29668,7.75,71972.3,-12.05,-40.15,-40.35,0,*67
1515081854.81,29669,7.75,71974.3,-12.01,-40.15,-40.35,0,*62
1515081856.05,29670,7.75,71974.8,-12.07,-40.15,-40.35,0,*6C
1515081857.28,29671,7.75,71974.0,-12.05,-40.15,-40.15,0,*6D
1515081858.54,29672,7.75,71968.8,-12.05,-40.21,-40.21,0,*6E
1515081859.77,29673,7.75,71974.0,-12.05,-40.21,-40.35,0,*6A
1515081861.02,29674,7.69,71964.5,-12.05,-40.15,-40.21,0,*6F
1515081862.29,29675,7.75,71966.8,-12.07,-40.15,-40.21,0,*6C
1515081863.53,29676,7.75,71968.5,-12.05,-39.97,-40.15,0,*6E
1515081864.74,29677,7.75,71970.0,-12.05,-40.03,-40.15,0,*6C
1515081865.96,29678,7.69,71968.0,-12.05,-40.03,-40.15,0,*63
1515081867.18,29679,7.75,71972.3,-12.05,-39.85,-40.15,0,*62
1515081868.42,29680,7.69,71968.8,-12.05,-40.03,-40.21,0,*63
1515081869.69,29681,7.75,71972.8,-12.01,-40.09,-40.15,0,*6B
1515081870.94,29682,7.75,71974.5,-12.05,-40.15,-40.21,0,*66
1515081872.21,29683,7.75,71972.0,-12.01,-40.15,-40.29,0,*6B
1515081873.49,29684,7.75,71974.8,-12.01,-40.15,-40.29,0,*6C
1515081874.72,29685,7.75,71970.3,-12.05,-40.21,-40.35,0,*63
1515081875.94,29686,7.75,71968.0,-12.05,-40.15,-40.35,0,*67
1515081877.16,29687,7.69,71966.8,-12.05,-40.15,-40.35,0,*66
1515081878.4,29688,7.75,71970.8,-12.05,-40.21,-40.35,0,*6E
1515081879.64,29689,7.75,71968.3,-12.05,-40.41,-40.35,0,*69
1515081880.9,29690,7.69,71964.8,-12.05,-40.21,-40.21,0,*62
1515081882.13,29691,7.75,71968.8,-12.05,-40.21,-40.35,0,*66
1515081883.39,29692,7.75,71966.3,-12.05,-40.21,-40.21,0,*60
1515081884.63,29693,7.75,71968.0,-12.05,-40.15,-40.21,0,*66
1515081885.86,29694,7.75,71970.3,-12.05,-40.15,-40.15,0,*66
1515081887.07,29695,7.75,71970.5,-12.05,-39.85,-40.03,0,*67
1515081888.31,29696,7.75,71970.8,-12.05,-40.03,-40.21,0,*64
1515081889.57,29697,7.75,71972.0,-12.05,-40.21,-40.21,0,*65
1515081890.82,29698,7.69,71970.8,-12.05,-40.15,-40.21,0,*6D
1515081892.12,29699,7.75,71978.0,-12.01,-40.09,-40.09,0,*6F
1515081893.41,29700,7.69,71972.3,-12.01,-39.97,-40.09,0,*67
1515081894.66,29701,7.69,71974.3,-12.01,-39.91,-40.15,0,*6D
1515081895.94,29702,7.75,71968.0,-12.01,-40.15,-40.29,0,*63
1515081897.21,29703,7.69,71968.0,-12.01,-40.15,-40.29,0,*62
1515081898.46,29704,7.75,71966.5,-11.99,-40.09,-40.15,0,*65
1515081899.76,29705,7.75,71962.8,-12.01,-40.09,-40.29,0,*69
1515081901.05,29706,7.75,71964.8,-12.01,-39.97,-40.09,0,*61
1515081902.35,29707,7.75,71966.3,-12.01,-40.09,-40.09,0,*69
1515081903.6,29708,7.75,71964.3,-12.01,-40.15,-40.15,0,*66
1515081904.88,29709,7.69,71962.0,-12.01,-40.15,-40.29,0,*68
1515081906.16,29710,7.69,71956.5,-12.01,-39.97,-40.29,0,*64
1515081907.43,29711,7.75,71960.3,-12.01,-39.97,-40.15,0,*6A
1515081908.7,29712,7.75,71960.0,-12.01,-40.09,-40.15,0,*60
1515081909.97,29713,7.75,71962.0,-12.01,-39.97,-40.15,0,*68
1515081911.27,29714,7.75,71960.3,-12.01,-40.09,-40.09,0,*6B
1515081912.56,29715,7.75,71966.5,-12.01,-39.97,-40.09,0,*63
1515081913.84,29716,7.69,71968.0,-12.01,-39.91,-40.09,0,*66
1515081915.1,29717,7.75,71964.8,-11.99,-39.97,-40.09,0,*63
1515081916.37,29718,7.75,71964.3,-11.99,-39.97,-39.97,0,*65
1515081917.62,29719,7.69,71964.5,-11.99,-39.79,-39.91,0,*62
1515081918.89,29720,7.75,71966.3,-11.99,-39.79,-39.97,0,*6E
1515081920.14,29721,7.75,71964.8,-11.99,-39.91,-40.09,0,*60
1515081921.4,29722,7.69,71966.8,-11.99,-39.97,-39.97,0,*6C
1515081922.63,29723,7.75,71962.0,-11.99,-40.15,-40.15,0,*6D
1515081923.9,29724,7.75,71962.5,-11.99,-39.97,-40.09,0,*63
1515081925.14,29725,7.69,71962.8,-11.99,-40.09,-40.15,0,*66
1515081926.39,29726,7.75,71966.5,-11.99,-40.15,-40.29,0,*67
1515081927.64,29727,7.69,71964.5,-11.99,-40.09,-40.15,0,*64
1515081928.88,29728,7.75,71968.3,-11.99,-40.09,-40.15,0,*6B
1515081930.15,29729,7.69,71966.8,-11.99,-39.97,-40.09,0,*6E
1515081931.42,29730,7.69,71966.0,-11.99,-39.97,-40.09,0,*66
1515081932.65,29731,7.75,71968.5,-11.99,-39.97,-40.15,0,*6A
1515081933.93,29732,7.75,71968.3,-11.99,-40.09,-40.09,0,*6D
1515081935.15,29733,7.75,71972.3,-11.99,-40.15,-40.15,0,*6C
1515081936.42,29734,7.75,71968.8,-11.99,-40.09,-40.29,0,*69
1515081937.64,29735,7.75,71970.8,-11.99,-39.85,-39.85,0,*6A
1515081938.89,29736,7.75,71966.5,-11.99,-39.71,-39.91,0,*67
1515081940.11,29737,7.75,71968.5,-11.99,-39.91,-39.91,0,*68
1515081941.32,29738,7.69,71966.8,-11.99,-40.03,-40.03,0,*67
1515081942.57,29739,7.69,71970.5,-11.99,-39.91,-40.09,0,*69
1515081943.79,29740,7.75,71968.5,-11.99,-39.91,-39.85,0,*6D
1515081945.01,29741,7.69,71964.5,-11.99,-39.85,-39.91,0,*6C
1515081946.23,29742,7.75,71966.0,-11.99,-39.85,-39.91,0,*6F
1515081947.47,29743,7.75,71968.0,-11.97,-40.03,-40.03,0,*65
1515081948.68,29744,7.75,71972.3,-11.99,-40.03,-40.03,0,*6C
1515081949.9,29745,7.75,71968.5,-11.99,-39.85,-39.91,0,*68
1515081951.12,29746,7.75,71966.8,-11.99,-39.85,-39.91,0,*6B
1515081952.36,29747,7.75,71968.0,-11.97,-39.91,-40.03,0,*64
1515081953.61,29748,7.75,71968.5,-11.97,-39.85,-39.85,0,*6E
1515081954.88,29749,7.75,71974.5,-11.99,-40.09,-40.21,0,*6B
1515081956.09,29750,7.75,71968.5,-11.99,-39.91,-40.03,0,*6C
1515081957.31,29751,7.75,71968.3,-11.99,-39.85,-39.91,0,*6D
1515081958.56,29752,7.75,71968.5,-11.97,-39.91,-39.91,0,*65
1515081959.83,29753,7.75,71966.3,-11.97,-39.65,-39.71,0,*61
1515081961.11,29754,7.75,71964.3,-11.97,-39.65,-39.71,0,*66
1515081962.37,29755,7.69,71968.3,-11.97,-39.71,-39.85,0,*69
1515081963.62,29756,7.75,71972.0,-11.97,-39.91,-39.91,0,*61
1515081964.87,29757,7.75,71976.5,-11.99,-40.03,-40.09,0,*64
1515081966.11,29758,7.75,71976.8,-11.97,-39.85,-40.03,0,*6F
1515081967.36,29759,7.75,71972.3,-11.97,-39.65,-39.91,0,*65
1515081968.65,29760,7.75,71968.5,-11.97,-39.71,-39.71,0,*64
1515081969.95,29761,7.75,71968.8,-11.97,-40.09,-40.09,0,*65
1515081971.25,29762,7.69,71970.0,-11.97,-40.09,-40.29,0,*64
1515081972.49,29763,7.69,71972.5,-11.97,-40.03,-40.03,0,*67
1515081973.75,29764,7.75,71970.8,-11.97,-40.03,-40.09,0,*6A
1515081975.0,29765,7.75,71968.8,-11.95,-39.85,-39.97,0,*60
1515081976.27,29766,7.75,71968.3,-11.95,-39.97,-39.97,0,*60
1515081977.55,29767,7.75,71968.3,-11.95,-39.79,-39.79,0,*61
1515081978.76,29768,7.69,71968.5,-11.95,-39.85,-40.03,0,*6E
1515081980.01,29769,7.75,71976.0,-11.95,-39.85,-39.97,0,*6C
1515081981.23,29770,7.75,71976.8,-11.95,-40.03,-40.03,0,*67
1515081982.44,29771,7.75,71974.3,-11.95,-40.03,-40.03,0,*66
1515081983.66,29772,7.69,71974.5,-11.95,-40.15,-40.03,0,*62
1515081984.91,29773,7.69,71970.3,-11.95,-40.09,-40.15,0,*69
1515081986.15,29774,7.75,71972.5,-11.95,-39.97,-40.03,0,*60
1515081987.39,29775,7.75,71964.3,-11.95,-39.97,-40.03,0,*61
1515081988.6,29776,7.75,71962.0,-11.95,-40.03,-40.03,0,*61
1515081989.85,29777,7.75,71964.8,-11.95,-39.79,-39.85,0,*63
1515081991.1,29778,7.75,71970.5,-11.95,-39.65,-39.79,0,*62
1515081992.36,29779,7.69,71968.8,-11.95,-39.79,-39.65,0,*63
1515081993.61,29780,7.75,71968.8,-11.91,-39.79,-39.65,0,*61
1515081994.89,29781,7.69,71968.0,-11.95,-39.59,-39.59,0,*69
1515081996.11,29782,7.69,71968.5,-11.95,-39.85,-39.85,0,*6A
1515081997.33,29783,7.69,71970.8,-11.91,-39.65,-39.85,0,*61
1515081998.58,29784,7.75,71968.0,-11.95,-39.85,-39.97,0,*6F
1515081999.86,29785,7.69,71964.0,-11.91,-39.79,-39.97,0,*69
1515082001.13,29786,7.69,71964.5,-11.95,-39.79,-39.79,0,*6E
1515082002.38,29787,7.75,71972.5,-11.91,-39.85,-39.79,0,*68
1515082003.66,29788,7.69,71970.8,-11.95,-39.79,-39.97,0,*60
1515082004.9,29789,7.69,71970.8,-11.91,-40.03,-39.97,0,*66
1515082006.12,29790,7.75,71974.3,-11.91,-39.85,-39.85,0,*6D
1515082007.36,29791,7.75,71976.0,-11.91,-39.97,-39.85,0,*6F
1515082008.61,29792,7.69,71972.0,-11.91,-39.85,-39.97,0,*6C
1515082009.85,29793,7.69,71968.3,-11.91,-39.79,-39.85,0,*6D
1515082011.08,29794,7.69,71968.0,-11.91,-39.65,-39.65,0,*69
1515082012.34,29795,7.75,71972.5,-11.95,-39.59,-39.65,0,*63
1515082013.61,29796,7.75,71976.0,-11.95,-39.79,-39.97,0,*6F
1515082014.86,29797,7.69,71974.3,-11.91,-39.79,-39.85,0,*69
1515082016.16,29798,7.75,71976.8,-11.89,-39.59,-39.71,0,*66
1515082017.44,29799,7.69,71970.3,-11.91,-39.79,-39.97,0,*64
1515082018.69,29800,7.69,71970.5,-11.91,-39.65,-39.79,0,*66
1515082019.93,29801,7.75,71964.0,-11.91,-39.59,-39.47,0,*65
1515082021.15,29802,7.69,71974.0,-11.91,-39.85,-39.85,0,*69
1515082022.43,29803,7.75,71976.3,-11.91,-39.79,-39.97,0,*68
1515082023.65,29804,7.75,71976.0,-11.91,-39.85,-40.03,0,*6F
1515082024.89,29805,7.69,71968.3,-11.91,-39.97,-40.03,0,*6D
1515082026.12,29806,7.75,71974.5,-11.91,-39.97,-40.03,0,*6E
1515082027.37,29807,7.69,71970.3,-11.89,-39.91,-39.91,0,*65
1515082028.65,29808,7.69,71972.5,-11.87,-39.79,-39.79,0,*64
1515082029.95,29809,7.75,71968.8,-11.89,-39.71,-39.71,0,*6B
1515082031.25,29810,7.75,71972.5,-11.89,-39.59,-39.59,0,*63
1515082032.53,29811,7.69,71970.5,-11.87,-39.71,-39.71,0,*6C
1515082033.83,29812,7.75,71978.3,-11.89,-39.59,-39.79,0,*63
1515082035.12,29813,7.75,71978.8,-11.89,-39.97,-39.97,0,*60
1515082036.37,29814,7.69,71976.8,-11.87,-39.91,-39.97,0,*6F
1515082037.62,29815,7.75,71972.5,-11.89,-39.91,-39.91,0,*66
1515082038.89,29816,7.69,71968.3,-11.87,-39.97,-39.97,0,*6B
1515082040.18,29817,7.75,71972.3,-11.89,-39.97,-40.09,0,*6D
1515082041.43,29818,7.69,71970.8,-11.87,-39.91,-39.97,0,*63
1515082042.7,29819,7.69,71972.3,-11.89,-40.15,-39.97,0,*6E
1515082043.99,29820,7.69,71974.0,-11.89,-39.97,-39.97,0,*60
1515082045.28,29821,7.75,71976.0,-11.89,-39.97,-39.97,0,*61
1515082046.53,29822,7.75,71976.3,-11.87,-39.91,-39.97,0,*6A
1515082047.8,29823,7.69,71970.5,-11.89,-39.91,-39.97,0,*65
1515082049.09,29824,7.69,71968.3,-11.89,-39.97,-39.97,0,*64
1515082050.38,29825,7.75,71976.0,-11.89,-39.97,-39.97,0,*65
1515082051.66,29826,7.69,71972.5,-11.89,-40.15,-40.09,0,*6B
1515082052.94,29827,7.75,71974.5,-11.89,-39.97,-39.97,0,*67
1515082054.22,29828,7.75,71972.8,-11.87,-40.09,-39.97,0,*6F
1515082055.48,29829,7.75,71974.8,-11.89,-39.97,-39.91,0,*6F
1515082056.77,29830,7.69,71968.0,-11.89,-39.97,-39.97,0,*61
1515082058.02,29831,7.69,71968.3,-11.87,-40.09,-40.15,0,*63
1515082059.32,29832,7.75,71974.5,-11.89,-40.09,-40.09,0,*63
1515082060.61,29833,7.69,71972.0,-11.89,-39.97,-39.97,0,*62
1515082061.88,29834,7.69,71968.3,-11.89,-39.91,-39.79,0,*63
1515082063.18,29835,7.75,71968.3,-11.89,-40.09,-39.97,0,*6D
1515082064.43,29836,7.75,71972.0,-11.87,-39.91,-39.97,0,*6F
1515082065.7,29837,7.69,71974.3,-11.87,-39.97,-39.97,0,*68
1515082066.99,29838,7.69,71978.0,-11.89,-40.09,-40.09,0,*69
1515082068.28,29839,7.69,71976.0,-11.89,-39.97,-39.97,0,*68
1515082069.57,29840,7.75,71976.3,-11.89,-39.97,-39.97,0,*66
1515082070.82,29841,7.75,71972.8,-11.87,-40.15,-39.97,0,*6D
1515082072.08,29842,7.75,71976.0,-11.87,-39.91,-39.97,0,*6C
1515082073.33,29843,7.69,71976.5,-11.87,-40.15,-40.09,0,*66
1515082074.58,29844,7.69,71976.5,-11.87,-39.91,-39.97,0,*6A
1515082075.81,29845,7.75,71978.5,-11.87,-40.15,-40.15,0,*6D
1515082077.07,29846,7.75,71978.3,-11.89,-40.15,-40.15,0,*60
1515082078.36,29847,7.75,71976.5,-11.89,-40.09,-40.09,0,*61
1515082079.66,29848,7.69,71970.3,-11.89,-40.09,-40.09,0,*6E
1515082080.96,29849,7.69,71968.8,-11.89,-40.09,-40.09,0,*6F
1515082082.19,29850,7.75,71974.8,-11.91,-40.15,-40.15,0,*6E
1515082083.47,29851,7.69,71974.0,-11.89,-40.15,-40.09,0,*6B
1515082084.74,29852,7.69,71972.3,-11.89,-39.91,-39.79,0,*63
1515082086.03,29853,7.75,71978.3,-11.89,-39.97,-39.97,0,*64
1515082087.3,29854,7.75,71976.3,-11.89,-39.91,-39.79,0,*65
1515082088.59,29855,7.75,71978.5,-11.89,-39.97,-39.97,0,*62
1515082089.82,29856,7.69,71970.3,-11.87,-39.91,-39.91,0,*6F
1515082091.09,29857,7.69,71970.8,-11.87,-39.71,-39.71,0,*6E
1515082092.32,29858,7.75,71972.5,-11.87,-39.91,-39.91,0,*61
1515082093.59,29859,7.69,71968.0,-11.89,-39.91,-39.97,0,*68
1515082094.86,29860,7.69,71972.0,-11.89,-39.91,-39.97,0,*62
1515082096.11,29861,7.75,71970.5,-11.87,-39.97,-39.91,0,*6D
1515082097.35,29862,7.75,71972.5,-11.87,-39.97,-39.91,0,*6E
1515082098.62,29863,7.69,71974.0,-11.89,-39.91,-39.97,0,*61
1515082099.88,29864,7.75,71974.8,-11.87,-39.71,-39.91,0,*60
1515082101.15,29865,7.69,71970.5,-11.89,-39.91,-39.79,0,*67